{"data":{"norad_id":81439,"intl_designator":"","name":"UNKNOWN","alt_names":[],"object_type":"UNKNOWN","status":"UNKNOWN","operator":null,"country":null,"launch_date":null,"launch_site_code":null,"launch_vehicle":null,"mission":null,"orbit_class":"UNKNOWN","rcs_meters":null,"size_class":null,"mass_kg":null,"dimensions":null,"purposes":[],"wikipedia_slug":null,"has_3d_model":false,"image_url":null,"decayed_at":null,"tle_current":{"epoch":"2026-05-23T20:51:15.979680Z","epoch_age_seconds":170264,"freshness":"FRESH","line1":"1 81439U          26143.86893495 -.00000013  00000+0  10777-3 0  9992","line2":"2 81439  67.1595 188.3163 0592382 103.1310 263.6471 12.62688524282362","mean_motion":12.62688524,"eccentricity":0.0592382,"inclination_deg":67.1595,"raan_deg":188.3163,"arg_perigee_deg":103.131,"mean_anomaly_deg":263.6471,"bstar":0.00010777,"rev_number":28236,"period_min":114.04237645546,"perigee_km":950.40127046543,"apogee_km":1873.3329111283,"semimajor_km":7790.0040907969,"source":"CELESTRAK","updated_at":"2026-05-25T13:38:09.453015Z"}}}